Location: Davidschlag
(48.4333°N, 14.2833°E)
Time: 15:06:03
(UTC+00:00)

Cosmos 220 Rocket - Pass Details

Date: 27 February 2020
Orbit: 576 x 616 km, 74.0° (Epoch: 27 March)

Event Time Altitude Azimuth Distance (km) Brightness Sun altitude
Rises 18:31:51 0° 206° (SSW) 2,827 7.7 -18.8°
Reaches altitude 10° 18:34:05 10° 208° (SSW) 1,922 6.8 -19.2°
Maximum altitude 18:38:22 74° 293° (WNW) 616 4.1 -19.9°
Drops below altitude 10° 18:42:38 10° 20° (NNE) 1,914 6.5 -20.6°
Sets 18:44:52 0° 22° (NNE) 2,813 7.3 -21.0°
